FW7063 Weather Reports


time (UTC)temp
C
wind
direction
speed
KPH
gust
KPH
rain 1hr
cm
rain 24hr
cm
rain mn
cm
humidity
%
barometer
mb
20260510113603 12 92 9.7 12.9 0.00 0.00 0.00 67 1015.9
20260510113103 12 115 4.8 12.9 0.00 0.00 0.00 68 1015.9
20260510112603 12 115 4.8 14.5 0.00 0.00 0.00 68 1015.6
20260510112103 12 95 1.6 12.9 0.00 0.00 0.00 68 1016.3
20260510111609 12 52 8.0 16.1 0.00 0.00 0.00 68 1016.3
20260510111103 12 123 9.7 17.7 0.00 0.00 0.00 68 1016.3
20260510110603 12 268 4.8 14.5 0.00 0.00 0.00 68 1016.3
20260510110103 12 325 6.4 12.9 0.00 0.00 0.00 68 1015.9
20260510105603 12 31 1.6 11.3 0.00 0.00 0.00 68 1016.3
20260510105103 12 63 8.0 14.5 0.00 0.00 0.00 68 1016.3
20260510104605 12 76 14.5 22.5 0.00 0.00 0.00 68 1016.3
20260510104104 12 47 1.6 8.0 0.00 0.00 0.00 68 1016.3
20260510103603 12 53 1.6 9.7 0.00 0.00 0.00 68 1016.3
20260510103103 12 231 3.2 14.5 0.00 0.00 0.00 68 1016.6
20260510102603 12 10 8.0 16.1 0.00 0.00 0.00 68 1016.3
20260510102103 12 105 1.6 8.0 0.00 0.00 0.00 68 1016.6
20260510101603 12 157 3.2 16.1 0.00 0.00 0.00 68 1016.3
20260510101103 12 100 8.0 9.7 0.00 0.00 0.00 68 1016.3
20260510100603 12 33 1.6 16.1 0.00 0.00 0.00 68 1016.3
20260510095603 12 63 1.6 14.5 0.00 0.00 0.00 70 1016.3
20260510095103 11 357 3.2 9.7 0.00 0.00 0.00 69 1016.3
20260510094603 11 94 3.2 11.3 0.00 0.00 0.00 69 1016.3
20260510094103 11 66 3.2 12.9 0.00 0.00 0.00 69 1016.3
20260510093605 11 74 3.2 11.3 0.00 0.00 0.00 69 1016.3
20260510093103 11 108 6.4 12.9 0.00 0.00 0.00 70 1016.3
20260510092603 11 352 3.2 4.8 0.00 0.00 0.00 70 1016.6
20260510092104 11 52 1.6 11.3 0.00 0.00 0.00 71 1016.6
20260510091603 11 27 3.2 8.0 0.00 0.00 0.00 70 1016.3
20260510091104 11 92 4.8 8.0 0.00 0.00 0.00 71 1016.6
20260510090603 11 44 14.5 20.9 0.00 0.00 0.00 70 1016.6
20260510085604 11 197 4.8 14.5 0.00 0.00 0.00 71 1016.3
20260510085103 11 343 6.4 16.1 0.00 0.00 0.00 71 1016.3
20260510084603 11 96 6.4 17.7 0.00 0.00 0.00 71 1016.6
20260510084103 11 91 8.0 22.5 0.00 0.00 0.00 71 1016.9
20260510083603 11 3 6.4 16.1 0.00 0.00 0.00 71 1016.6
20260510083103 11 99 3.2 16.1 0.00 0.00 0.00 72 1016.6
20260510082603 11 138 6.4 9.7 0.00 0.00 0.00 72 1016.9
20260510082103 11 103 4.8 14.5 0.00 0.00 0.00 73 1016.6
20260510081603 11 99 6.4 12.9 0.00 0.00 0.00 73 1016.9
20260510081103 11 29 3.2 8.0 0.00 0.00 0.00 73 1016.6
20260510080604 11 22 4.8 14.5 0.00 0.00 0.00 73 1016.6
20260510080103 11 65 6.4 9.7 0.00 0.00 0.00 74 1016.9
20260510075604 11 54 4.8 9.7 0.00 0.00 0.00 74 1016.6
20260510075103 11 103 4.8 11.3 0.00 0.00 0.00 74 1016.6
20260510074603 11 97 4.8 12.9 0.00 0.00 0.00 74 1016.6
20260510074103 10 38 3.2 4.8 0.00 0.00 0.00 75 1016.6
20260510073604 10 38 4.8 11.3 0.00 0.00 0.00 75 1016.6
20260510073104 10 18 8.0 12.9 0.00 0.00 0.00 75 1016.9
20260510072603 10 26 8.0 16.1 0.00 0.00 0.00 75 1016.9
20260510072103 10 136 3.2 9.7 0.00 0.00 0.00 76 1016.9
20260510071603 10 123 6.4 11.3 0.00 0.00 0.00 75 1016.6
20260510071104 10 83 1.6 8.0 0.00 0.00 0.00 76 1016.6
20260510070603 10 98 4.8 9.7 0.00 0.00 0.00 76 1016.6
20260510070103 10 327 3.2 11.3 0.00 0.00 0.00 77 1016.9
20260510065602 10 32 4.8 9.7 0.00 0.00 0.00 77 1016.9
20260510065103 10 50 4.8 11.3 0.00 0.00 0.00 77 1016.6
20260510064604 10 89 4.8 8.0 0.00 0.00 0.00 77 1016.9
20260510064103 10 63 3.2 9.7 0.00 0.00 0.00 77 1016.6
20260510063603 10 88 3.2 3.2 0.00 0.00 0.00 77 1016.9
20260510063103 10 62 1.6 9.7 0.00 0.00 0.00 78 1016.9
20260510062603 10 89 4.8 8.0 0.00 0.00 0.00 78 1016.9
20260510062103 10 64 1.6 9.7 0.00 0.00 0.00 79 1016.9
20260510061603 10 75 1.6 9.7 0.00 0.00 0.00 79 1016.6
20260510061103 10 73 1.6 9.7 0.00 0.00 0.00 79 1016.6
20260510060604 9 51 1.6 8.0 0.00 0.00 0.00 79 1016.6
20260510055604 9 89 6.4 9.7 0.00 0.00 0.00 80 1016.6
20260510055103 9 24 3.2 9.7 0.00 0.00 0.00 81 1016.6
20260510054603 9 23 3.2 8.0 0.00 0.00 0.00 81 1016.6
20260510054103 9 99 4.8 14.5 0.00 0.00 0.00 81 1016.3
20260510053603 9 148 3.2 16.1 0.00 0.00 0.00 81 1016.6
20260510053104 9 316 1.6 3.2 0.00 0.00 0.00 81 1016.3
20260510052603 9 329 1.6 8.0 0.00 0.00 0.00 82 1016.3
20260510052110 9 347 3.2 4.8 0.00 0.00 0.00 82 1016.3
20260510051606 9 42 4.8 8.0 0.00 0.00 0.00 82 1016.6
20260510051103 9 48 3.2 11.3 0.00 0.00 0.00 82 1016.3
20260510050603 9 305 1.6 4.8 0.00 0.00 0.00 82 1016.3
20260510050104 9 134 3.2 8.0 0.00 0.00 0.00 82 1016.3
20260510045603 9 147 1.6 11.3 0.00 0.00 0.00 82 1016.3
20260510045103 9 60 4.8 9.7 0.00 0.00 0.00 82 1016.6
20260510044603 9 34 4.8 8.0 0.00 0.00 0.00 82 1016.3
20260510044103 8 73 4.8 8.0 0.00 0.00 0.00 82 1016.3
20260510043603 8 344 1.6 8.0 0.00 0.00 0.00 82 1016.3
20260510043103 8 95 3.2 9.7 0.00 0.00 0.00 82 1016.3
20260510042604 8 318 3.2 9.7 0.00 0.00 0.00 82 1016.3
20260510042103 8 46 1.6 8.0 0.00 0.00 0.00 82 1016.6
20260510041603 8 297 4.8 14.5 0.00 0.00 0.00 82 1016.6
20260510041103 8 356 1.6 11.3 0.00 0.00 0.00 82 1016.6
20260510040604 8 160 3.2 8.0 0.00 0.00 0.00 82 1016.6
20260510040104 8 40 6.4 9.7 0.00 0.00 0.00 82 1016.6
20260510035603 8 106 4.8 11.3 0.00 0.00 0.00 82 1016.3
20260510035104 8 100 4.8 8.0 0.00 0.00 0.00 82 1016.9
20260510034603 8 92 9.7 14.5 0.00 0.00 0.00 81 1016.6
20260510034103 8 91 1.6 12.9 0.00 0.00 0.00 81 1016.6
20260510033603 8 90 4.8 11.3 0.00 0.00 0.00 80 1016.9
20260510033103 8 340 8.0 12.9 0.00 0.00 0.00 81 1016.6
20260510032603 9 97 4.8 11.3 0.00 0.00 0.00 80 1016.6
20260510032103 9 11 1.6 8.0 0.00 0.00 0.00 80 1016.6
20260510031603 9 85 8.0 12.9 0.00 0.00 0.00 80 1016.6
20260510031103 9 32 3.2 14.5 0.00 0.00 0.00 79 1016.9
20260510030604 9 136 3.2 8.0 0.00 0.00 0.00 79 1016.9
20260510030104 9 13 4.8 8.0 0.00 0.00 0.00 79 1016.9
20260510025603 9 256 6.4 9.7 0.00 0.00 0.00 79 1016.9
20260510025104 9 64 6.4 16.1 0.00 0.00 0.00 78 1016.6
20260510024603 9 76 6.4 9.7 0.00 0.00 0.00 77 1016.6
20260510024103 9 51 4.8 9.7 0.00 0.00 0.00 76 1016.9
20260510023603 10 1 3.2 11.3 0.00 0.00 0.00 76 1016.6
20260510023103 10 75 4.8 8.0 0.00 0.00 0.00 76 1016.9
20260510022603 10 20 3.2 8.0 0.00 0.00 0.00 76 1016.9
20260510022103 10 57 1.6 9.7 0.00 0.00 0.00 75 1016.6
20260510021604 10 83 6.4 11.3 0.00 0.00 0.00 75 1016.6
20260510021103 10 30 1.6 8.0 0.00 0.00 0.00 75 1016.9
20260510020604 10 66 3.2 8.0 0.00 0.00 0.00 74 1016.6
20260510015604 10 73 1.6 3.2 0.00 0.00 0.00 72 1016.6
20260510015103 10 39 3.2 4.8 0.00 0.00 0.00 72 1016.9
20260510014603 10 317 4.8 8.0 0.00 0.00 0.00 71 1016.6
20260510014103 10 356 3.2 3.2 0.00 0.00 0.00 71 1016.9
20260510013603 10 73 1.6 4.8 0.00 0.00 0.00 71 1016.6
20260510013103 10 58 1.6 3.2 0.00 0.00 0.00 71 1016.6
20260510012603 10 31 4.8 8.0 0.00 0.00 0.00 71 1016.9
20260510012104 10 30 1.6 4.8 0.00 0.00 0.00 70 1016.9
20260510011603 10 15 1.6 3.2 0.00 0.00 0.00 69 1016.9
20260510011104 10 192 0.0 14.5 0.00 0.00 0.00 70 1016.9
20260510010603 10 48 1.6 4.8 0.00 0.00 0.00 70 1016.9
20260510010103 10 89 1.6 4.8 0.00 0.00 0.00 70 1016.9
20260510005603 10 62 1.6 1.6 0.00 0.00 0.00 69 1016.9
20260510005103 10 80 0.0 3.2 0.00 0.00 0.00 69 1016.9
20260510004604 10 72 1.6 4.8 0.00 0.00 0.00 70 1016.9
20260510004104 10 69 1.6 4.8 0.00 0.00 0.00 69 1016.9
20260510003603 10 77 1.6 12.9 0.00 0.00 0.00 69 1016.9
20260510003104 10 88 3.2 8.0 0.00 0.00 0.00 68 1016.9
20260510002604 10 110 3.2 4.8 0.00 0.00 0.00 67 1016.6
20260510002103 10 92 1.6 4.8 0.00 0.00 0.00 67 1016.9
20260510001603 11 59 1.6 8.0 0.00 0.00 0.00 66 1016.9
20260510001103 11 83 0.0 3.2 0.00 0.00 0.00 66 1016.6
20260510000603 11 75 1.6 4.8 0.00 0.00 0.00 65 1016.6
20260510000103 11 94 3.2 4.8 0.00 0.00 0.00 65 1016.9
20260509235603 11 96 3.2 3.2 0.00 0.00 0.00 64 1016.9
20260509235103 11 87 1.6 11.3 0.00 0.00 0.00 64 1016.6
20260509234603 11 85 0.0 9.7 0.00 0.00 0.00 63 1016.9
20260509234103 11 46 4.8 11.3 0.00 0.00 0.00 63 1016.6
20260509233603 11 203 1.6 9.7 0.00 0.00 0.00 63 1016.6
20260509233104 11 73 4.8 8.0 0.00 0.00 0.00 62 1016.9
20260509232603 11 76 1.6 4.8 0.00 0.00 0.00 61 1016.9
20260509232103 11 66 3.2 11.3 0.00 0.00 0.00 62 1016.6
20260509231603 11 116 1.6 4.8 0.00 0.00 0.00 61 1016.6
20260509231104 11 85 0.0 1.6 0.00 0.00 0.00 61 1016.9
20260509230603 11 108 1.6 3.2 0.00 0.00 0.00 61 1016.6
20260509230103 11 77 0.0 1.6 0.00 0.00 0.00 61 1016.6
20260509225603 11 90 4.8 8.0 0.00 0.00 0.00 60 1016.6
20260509225103 11 76 0.0 1.6 0.00 0.00 0.00 60 1016.6
20260509224603 11 86 0.0 1.6 0.00 0.00 0.00 60 1016.9
20260509224103 11 87 3.2 8.0 0.00 0.00 0.00 60 1016.9
20260509223603 11 91 0.0 3.2 0.00 0.00 0.00 59 1016.6
20260509223103 11 126 4.8 9.7 0.00 0.00 0.00 58 1016.9
20260509222603 11 96 0.0 1.6 0.00 0.00 0.00 58 1016.9
20260509222104 11 85 0.0 1.6 0.00 0.00 0.00 58 1016.6
20260509221603 11 94 0.0 3.2 0.00 0.00 0.00 58 1016.6
20260509221103 11 89 1.6 8.0 0.00 0.00 0.00 57 1016.3
20260509220603 11 91 1.6 1.6 0.00 0.00 0.00 56 1016.6
20260509215603 12 79 1.6 3.2 0.00 0.00 0.00 55 1016.6
20260509215103 12 79 3.2 3.2 0.00 0.00 0.00 54 1016.6
20260509214603 12 108 1.6 8.0 0.00 0.00 0.00 53 1016.6
20260509214104 12 83 0.0 8.0 0.00 0.00 0.00 53 1016.6
20260509213603 12 101 1.6 3.2 0.00 0.00 0.00 53 1016.9
20260509213103 12 68 0.0 9.7 0.00 0.00 0.00 52 1016.6
20260509212603 12 86 0.0 3.2 0.00 0.00 0.00 51 1016.6
20260509212103 12 95 1.6 11.3 0.00 0.00 0.00 50 1016.6
20260509211603 12 95 0.0 3.2 0.00 0.00 0.00 49 1016.6
20260509211104 12 90 1.6 3.2 0.00 0.00 0.00 49 1016.9
20260509210603 12 53 4.8 4.8 0.00 0.00 0.00 48 1016.3
20260509210106 12 80 1.6 3.2 0.00 0.00 0.00 48 1016.6
20260509205603 12 87 1.6 3.2 0.00 0.00 0.00 47 1016.6
20260509205103 12 81 1.6 3.2 0.00 0.00 0.00 46 1016.3
20260509204604 13 75 1.6 4.8 0.00 0.00 0.00 46 1016.6
20260509204103 13 82 0.0 3.2 0.00 0.00 0.00 45 1016.3
20260509203604 13 78 1.6 9.7 0.00 0.00 0.00 46 1016.6
20260509203103 13 76 0.0 4.8 0.00 0.00 0.00 46 1016.3
20260509202603 13 73 3.2 8.0 0.00 0.00 0.00 45 1016.3
20260509202104 13 96 3.2 4.8 0.00 0.00 0.00 46 1016.3
20260509201603 13 57 3.2 8.0 0.00 0.00 0.00 46 1016.3
20260509201103 13 96 1.6 4.8 0.00 0.00 0.00 46 1016.3
20260509200603 13 74 6.4 9.7 0.00 0.00 0.00 46 1015.9
20260509200103 13 38 4.8 8.0 0.00 0.00 0.00 46 1015.9
20260509195604 13 106 1.6 9.7 0.00 0.00 0.00 46 1015.9
20260509195103 14 243 4.8 11.3 0.00 0.00 0.00 46 1015.9
20260509194604 14 86 1.6 9.7 0.00 0.00 0.00 46 1015.9
20260509194103 14 86 1.6 3.2 0.00 0.00 0.00 47 1016.3
20260509193603 14 108 1.6 9.7 0.00 0.00 0.00 47 1015.9
20260509193103 15 119 3.2 4.8 0.00 0.00 0.00 48 1015.9
20260509192603 15 87 1.6 1.6 0.00 0.00 0.00 48 1015.9
20260509192104 15 69 1.6 4.8 0.00 0.00 0.00 48 1015.9
20260509191603 15 79 1.6 4.8 0.00 0.00 0.00 47 1015.9
20260509191103 15 80 1.6 4.8 0.00 0.00 0.00 47 1015.6
20260509190603 15 85 1.6 3.2 0.00 0.00 0.00 46 1015.6
20260509185603 15 79 1.6 8.0 0.00 0.00 0.00 45 1015.9
20260509185103 15 89 1.6 4.8 0.00 0.00 0.00 45 1015.9
20260509184603 15 97 4.8 9.7 0.00 0.00 0.00 45 1015.6
20260509184103 16 160 9.7 11.3 0.00 0.00 0.00 47 1015.6
20260509183604 16 290 1.6 4.8 0.00 0.00 0.00 47 1015.6
20260509183103 16 108 1.6 12.9 0.00 0.00 0.00 47 1015.6
20260509182603 16 100 0.0 9.7 0.00 0.00 0.00 47 1015.6
20260509182103 16 62 1.6 11.3 0.00 0.00 0.00 47 1015.2
20260509181604 16 117 0.0 3.2 0.00 0.00 0.00 46 1015.6
20260509181104 16 84 3.2 12.9 0.00 0.00 0.00 45 1015.6
20260509180603 17 115 1.6 11.3 0.00 0.00 0.00 45 1015.6
20260509180103 17 42 6.4 11.3 0.00 0.00 0.00 45 1015.2
20260509175605 17 186 4.8 9.7 0.00 0.00 0.00 44 1015.2
20260509175104 17 89 6.4 11.3 0.00 0.00 0.00 44 1015.2
20260509174603 17 39 1.6 11.3 0.00 0.00 0.00 44 1015.2
20260509174103 17 241 3.2 11.3 0.00 0.00 0.00 42 1015.6
20260509173603 17 64 4.8 12.9 0.00 0.00 0.00 42 1015.2
20260509173109 18 57 11.3 14.5 0.00 0.00 0.00 42 1015.2
20260509172603 18 96 9.7 17.7 0.00 0.00 0.00 43 1015.2
20260509172103 18 211 1.6 12.9 0.00 0.00 0.00 42 1015.2
20260509171604 18 13 3.2 8.0 0.00 0.00 0.00 42 1015.2
20260509171104 18 345 4.8 9.7 0.00 0.00 0.00 42 1015.6
20260509170604 18 163 3.2 12.9 0.00 0.00 0.00 42 1015.2
20260509170104 18 58 6.4 11.3 0.00 0.00 0.00 44 1015.2
20260509165604 18 109 3.2 11.3 0.00 0.00 0.00 43 1015.2
20260509165103 18 105 4.8 9.7 0.00 0.00 0.00 44 1014.9
20260509164604 18 87 6.4 8.0 0.00 0.00 0.00 44 1015.2
20260509164104 18 80 1.6 4.8 0.00 0.00 0.00 44 1015.2
20260509163604 19 45 3.2 9.7 0.00 0.00 0.00 43 1014.9
20260509163103 19 85 8.0 20.9 0.00 0.00 0.00 42 1015.2
20260509162603 20 81 4.8 12.9 0.00 0.00 0.00 43 1014.9
20260509162103 20 80 4.8 16.1 0.00 0.00 0.00 41 1014.9
20260509161603 20 212 3.2 8.0 0.00 0.00 0.00 42 1014.9
20260509161104 20 56 4.8 4.8 0.00 0.00 0.00 41 1014.9
20260509160603 20 206 8.0 11.3 0.00 0.00 0.00 42 1015.2
20260509160103 20 50 8.0 12.9 0.00 0.00 0.00 41 1014.9
20260509155603 20 187 6.4 14.5 0.00 0.00 0.00 43 1014.9
20260509155103 20 102 3.2 9.7 0.00 0.00 0.00 42 1015.2
20260509154603 20 240 6.4 22.5 0.00 0.00 0.00 42 1015.2
20260509154103 20 140 1.6 3.2 0.00 0.00 0.00 42 1014.9
20260509153603 20 60 8.0 12.9 0.00 0.00 0.00 41 1015.2
20260509153103 20 93 4.8 9.7 0.00 0.00 0.00 42 1015.2
20260509152603 20 67 3.2 8.0 0.00 0.00 0.00 42 1015.2
20260509152104 21 125 3.2 8.0 0.00 0.00 0.00 41 1015.2
20260509151603 21 304 1.6 9.7 0.00 0.00 0.00 41 1015.6
20260509151103 21 59 1.6 8.0 0.00 0.00 0.00 41 1015.2
20260509150603 21 131 4.8 12.9 0.00 0.00 0.00 41 1015.2
20260509150104 21 106 3.2 12.9 0.00 0.00 0.00 41 1015.2
20260509145604 21 166 11.3 14.5 0.00 0.00 0.00 43 1015.6
20260509145104 21 206 1.6 11.3 0.00 0.00 0.00 40 1015.2
20260509144603 21 31 1.6 8.0 0.00 0.00 0.00 41 1015.2
20260509144103 21 130 4.8 14.5 0.00 0.00 0.00 41 1015.2
20260509143603 21 119 4.8 9.7 0.00 0.00 0.00 40 1015.2
20260509143103 21 253 1.6 8.0 0.00 0.00 0.00 43 1015.2
20260509142605 21 184 4.8 12.9 0.00 0.00 0.00 42 1015.2
20260509142103 20 49 4.8 11.3 0.00 0.00 0.00 42 1015.2
20260509141603 20 92 4.8 12.9 0.00 0.00 0.00 42 1014.9
20260509141103 20 291 4.8 8.0 0.00 0.00 0.00 42 1015.2
20260509140603 20 172 4.8 12.9 0.00 0.00 0.00 42 1014.9
20260509140103 20 350 6.4 9.7 0.00 0.00 0.00 43 1015.2
20260509135604 20 12 3.2 8.0 0.00 0.00 0.00 42 1014.9
20260509135104 20 160 4.8 4.8 0.00 0.00 0.00 42 1015.2
20260509134603 20 163 9.7 16.1 0.00 0.00 0.00 44 1015.2
20260509134103 20 78 6.4 12.9 0.00 0.00 0.00 42 1015.2
20260509133603 20 101 4.8 8.0 0.00 0.00 0.00 43 1015.2
20260509133104 20 308 6.4 11.3 0.00 0.00 0.00 44 1015.2
20260509132603 20 149 0.0 12.9 0.00 0.00 0.00 44 1015.2
20260509132103 20 98 3.2 8.0 0.00 0.00 0.00 43 1015.2
20260509131603 20 108 3.2 4.8 0.00 0.00 0.00 46 1015.2
20260509131103 20 256 4.8 12.9 0.00 0.00 0.00 46 1015.2
20260509130603 20 72 4.8 9.7 0.00 0.00 0.00 45 1015.2
20260509125603 20 234 4.8 12.9 0.00 0.00 0.00 47 1015.2
20260509125103 20 302 1.6 4.8 0.00 0.00 0.00 46 1015.6
20260509124603 20 300 4.8 12.9 0.00 0.00 0.00 48 1015.6
20260509124103 19 59 4.8 11.3 0.00 0.00 0.00 47 1015.6
20260509123604 19 152 1.6 11.3 0.00 0.00 0.00 48 1015.6
20260509123103 19 186 4.8 11.3 0.00 0.00 0.00 47 1015.6
20260509122603 19 117 1.6 4.8 0.00 0.00 0.00 50 1015.9
20260509122104 19 239 4.8 14.5 0.00 0.00 0.00 50 1015.9
20260509121603 19 98 4.8 8.0 0.00 0.00 0.00 50 1015.9
20260509121103 19 100 8.0 11.3 0.00 0.00 0.00 51 1015.9
20260509120603 18 80 6.4 9.7 0.00 0.00 0.00 49 1015.9
20260509120103 18 257 1.6 9.7 0.00 0.00 0.00 49 1016.3
20260509115604 19 69 4.8 12.9 0.00 0.00 0.00 50 1015.9
20260509115104 19 158 3.2 9.7 0.00 0.00 0.00 51 1016.3
20260509114603 20 160 1.6 11.3 0.00 0.00 0.00 50 1016.3
20260509114103 20 226 0.0 9.7 0.00 0.00 0.00 53 1016.3